2MARL EGJB-EGHI

Flight info

Callsign 2MARL
Flight time 0h 18m
Altitude 13000
Route ORTAC Q41 THRED
Aircraft C750/M-SBDE3FGHRWXY/S

Departure

Time 2026-04-26 10:17
Airport Guernsey Airport (EGJB)

Arrival

Time 2026-04-26 10:35
Airport Southampton Airport (EGHI)
Time Latitude Longitude Altitude Speed Heading
2026-04-26 10:12 49.43352 -2.59064 341 ft 0 kts 317°
2026-04-26 10:14 49.43355 -2.59070 339 ft 6 kts 313°
2026-04-26 10:14 49.43391 -2.59181 340 ft 9 kts 316°
2026-04-26 10:14 49.43418 -2.59193 341 ft 0 kts
2026-04-26 10:15 49.43426 -2.59194 341 ft 7 kts 358°
2026-04-26 10:15 49.43520 -2.59260 345 ft 26 kts 277°
2026-04-26 10:16 49.43507 -2.59897 338 ft 91 kts 267°
2026-04-26 10:16 49.43475 -2.60889 319 ft 70 kts 266°
2026-04-26 10:16 49.43452 -2.61323 310 ft 22 kts 290°
2026-04-26 10:16 49.43471 -2.61280 311 ft 34 kts 87°
2026-04-26 10:17 49.43497 -2.60318 332 ft 134 kts 88°
2026-04-26 10:17 49.43529 -2.58921 1104 ft 123 kts 89°
2026-04-26 10:17 49.43548 -2.57457 1626 ft 156 kts 90°
2026-04-26 10:17 49.43663 -2.55589 1998 ft 200 kts 71°
2026-04-26 10:18 49.44595 -2.53770 2583 ft 235 kts 38°
2026-04-26 10:18 49.46099 -2.52520 3392 ft 255 kts 25°
2026-04-26 10:18 49.47742 -2.51375 4237 ft 270 kts 25°
2026-04-26 10:18 49.49479 -2.50087 5194 ft 282 kts 26°
2026-04-26 10:19 49.51257 -2.48705 6130 ft 291 kts 26°
2026-04-26 10:19 49.53077 -2.47310 7151 ft 295 kts 26°
2026-04-26 10:19 49.54946 -2.45898 8142 ft 303 kts 26°
2026-04-26 10:19 49.56863 -2.44442 9156 ft 311 kts 26°
2026-04-26 10:20 49.58844 -2.42928 9972 ft 324 kts 26°
2026-04-26 10:20 49.60195 -2.41896 10462 ft 330 kts 26°
2026-04-26 10:20 49.62993 -2.39760 11430 ft 341 kts 25°
2026-04-26 10:20 49.65143 -2.38118 12178 ft 348 kts 25°
2026-04-26 10:21 49.67298 -2.36468 12935 ft 353 kts 25°
2026-04-26 10:21 49.69517 -2.34768 13717 ft 358 kts 25°
2026-04-26 10:21 49.71765 -2.33044 14464 ft 363 kts 25°
2026-04-26 10:21 49.74005 -2.31323 15567 ft 349 kts 25°
2026-04-26 10:22 49.76107 -2.29703 17157 ft 326 kts 24°
2026-04-26 10:22 49.78068 -2.28193 18768 ft 303 kts 24°
2026-04-26 10:22 49.79883 -2.26796 20158 ft 284 kts 23°
2026-04-26 10:22 49.81677 -2.25420 20886 ft 293 kts 23°
2026-04-26 10:23 49.83559 -2.23980 21014 ft 323 kts 24°
2026-04-26 10:23 49.85669 -2.22355 21030 ft 353 kts 24°
2026-04-26 10:23 49.87957 -2.20580 21047 ft 382 kts 24°
2026-04-26 10:23 49.90417 -2.18674 21050 ft 408 kts 24°
2026-04-26 10:24 49.93037 -2.16646 21050 ft 432 kts 25°
2026-04-26 10:24 49.95794 -2.14505 21047 ft 453 kts 25°
2026-04-26 10:24 49.98671 -2.12268 21043 ft 472 kts 25°
2026-04-26 10:24 50.01659 -2.09946 21051 ft 488 kts 25°
2026-04-26 10:25 50.04697 -2.07581 21042 ft 500 kts 25°
2026-04-26 10:25 50.07816 -2.05147 21046 ft 504 kts 25°
2026-04-26 10:25 50.10952 -2.02697 21048 ft 503 kts 25°
2026-04-26 10:25 50.14083 -2.00249 21048 ft 503 kts 25°
2026-04-26 10:26 50.17204 -1.97806 21053 ft 503 kts 25°
2026-04-26 10:26 50.20335 -1.95350 21052 ft 503 kts 25°
2026-04-26 10:26 50.23457 -1.92898 21050 ft 503 kts 25°
2026-04-26 10:26 50.26585 -1.90437 21052 ft 503 kts 26°
2026-04-26 10:27 50.29708 -1.87978 21055 ft 503 kts 26°
2026-04-26 10:27 50.32826 -1.85517 21060 ft 502 kts 26°
2026-04-26 10:27 50.35907 -1.83083 21062 ft 502 kts 26°
2026-04-26 10:27 50.39028 -1.80614 21063 ft 502 kts 26°
2026-04-26 10:28 50.42145 -1.78143 21066 ft 502 kts 26°
2026-04-26 10:28 50.45259 -1.75671 21067 ft 502 kts 26°
2026-04-26 10:28 50.48378 -1.73193 21067 ft 502 kts 26°
2026-04-26 10:28 50.51487 -1.70717 21067 ft 502 kts 26°
2026-04-26 10:29 50.54599 -1.68237 21069 ft 501 kts 26°
2026-04-26 10:29 50.57712 -1.65752 21071 ft 501 kts 26°
2026-04-26 10:29 50.60778 -1.63300 21068 ft 501 kts 26°
2026-04-26 10:29 50.63753 -1.60915 20991 ft 457 kts 26°
2026-04-26 10:30 50.66383 -1.58797 19495 ft 385 kts 26°
2026-04-26 10:30 50.68651 -1.56977 17053 ft 349 kts 26°
2026-04-26 10:30 50.70737 -1.55311 14812 ft 325 kts 26°
2026-04-26 10:30 50.72691 -1.53743 12657 ft 306 kts 26°
2026-04-26 10:31 50.74532 -1.52258 10670 ft 289 kts 26°
2026-04-26 10:31 50.76273 -1.50854 8732 ft 274 kts 26°
2026-04-26 10:31 50.77916 -1.49531 6975 ft 263 kts 27°
2026-04-26 10:31 50.79516 -1.48241 5244 ft 255 kts 28°
2026-04-26 10:32 50.81079 -1.46986 3756 ft 255 kts 29°
2026-04-26 10:32 50.82708 -1.45661 3021 ft 268 kts 29°
2026-04-26 10:32 50.84306 -1.44368 2995 ft 243 kts 29°
2026-04-26 10:32 50.85732 -1.43214 3113 ft 221 kts 30°
2026-04-26 10:33 50.87075 -1.42124 3040 ft 213 kts 29°
2026-04-26 10:33 50.88349 -1.41098 3117 ft 200 kts 29°
2026-04-26 10:33 50.89529 -1.40143 3077 ft 176 kts 29°
2026-04-26 10:33 50.90561 -1.39300 2887 ft 164 kts 31°
2026-04-26 10:34 50.91561 -1.38468 1638 ft 170 kts 30°
2026-04-26 10:34 50.92486 -1.37787 1245 ft 136 kts 28°
2026-04-26 10:34 50.93381 -1.37045 278 ft 154 kts 31°
2026-04-26 10:34 50.94219 -1.36180 103 ft 135 kts 30°
2026-04-26 10:35 50.94944 -1.35732 37 ft 65 kts 21°
2026-04-26 10:35 50.95060 -1.35667 36 ft 1 kts 152°
2026-04-26 10:35 50.95036 -1.35792 36 ft 21 kts 290°
2026-04-26 10:35 50.95146 -1.35869 36 ft 24 kts 18°
2026-04-26 10:36 50.95311 -1.35794 36 ft 10 kts 329°
2026-04-26 10:36 50.95327 -1.35871 36 ft 0 kts 288°